VOE37Z LFST-LZKZ

Flight info

Callsign VOE37Z
Flight time N/A
Altitude 35000
Route LUPEN T107 LELTA Y161 MAH L173 TITIG DCT MATIG DCT TOVKA DCT SLC DCT TAKOS
Aircraft A320/M-SDE3FGHIRWY/LB1

Departure

Time 2026-05-05 16:20
Airport Strasbourg Airport (LFST)

Arrival

Time N/A
Airport Košice International Airport (LZKZ)
Time Latitude Longitude Altitude Speed Heading
2026-05-05 15:59 48.54395 7.62821 506 ft 0 kts 319°
2026-05-05 16:11 48.54364 7.62868 506 ft 2 kts 307°
2026-05-05 16:12 48.54355 7.62888 506 ft 2 kts 294°
2026-05-05 16:12 48.54354 7.62935 505 ft 2 kts 232°
2026-05-05 16:13 48.54358 7.62943 506 ft 0 kts 229°
2026-05-05 16:14 48.54334 7.62901 506 ft 7 kts 229°
2026-05-05 16:14 48.54240 7.62855 504 ft 8 kts 152°
2026-05-05 16:15 48.54138 7.62933 504 ft 9 kts 191°
2026-05-05 16:15 48.54015 7.62745 502 ft 19 kts 229°
2026-05-05 16:16 48.53845 7.62451 504 ft 16 kts 228°
2026-05-05 16:16 48.53696 7.62196 508 ft 18 kts 229°
2026-05-05 16:17 48.53556 7.61956 508 ft 14 kts 229°
2026-05-05 16:17 48.53496 7.61853 508 ft 13 kts 229°
2026-05-05 16:18 48.53336 7.61581 508 ft 12 kts 229°
2026-05-05 16:18 48.53294 7.61510 510 ft 10 kts 224°
2026-05-05 16:18 48.53156 7.61595 509 ft 14 kts 111°
2026-05-05 16:19 48.53201 7.61746 507 ft 23 kts 49°
2026-05-05 16:19 48.53476 7.62215 508 ft 93 kts 49°
2026-05-05 16:19 48.54765 7.64422 954 ft 162 kts 49°
2026-05-05 16:20 48.56212 7.67007 2432 ft 164 kts 52°
2026-05-05 16:20 48.57864 7.69981 3171 ft 208 kts 51°
2026-05-05 16:21 48.60215 7.72913 4300 ft 230 kts 12°
2026-05-05 16:22 48.63880 7.69772 6714 ft 217 kts 280°
2026-05-05 16:22 48.63276 7.65537 8197 ft 213 kts 235°
2026-05-05 16:23 48.61620 7.61772 9697 ft 217 kts 235°
2026-05-05 16:23 48.60779 7.59858 10350 ft 220 kts 235°
2026-05-05 16:23 48.59069 7.55961 11677 ft 225 kts 235°
2026-05-05 16:24 48.58199 7.53973 12351 ft 228 kts 236°
2026-05-05 16:24 48.57136 7.52121 12731 ft 245 kts 216°
2026-05-05 16:24 48.53594 7.51299 13127 ft 298 kts 162°
2026-05-05 16:25 48.51822 7.53150 13300 ft 329 kts 133°
2026-05-05 16:25 48.49346 7.59526 13732 ft 369 kts 122°
2026-05-05 16:25 48.48037 7.62885 14295 ft 374 kts 124°
2026-05-05 16:26 48.45279 7.69596 15540 ft 380 kts 121°
2026-05-05 16:26 48.43697 7.77275 16761 ft 393 kts 97°
2026-05-05 16:27 48.43692 7.81406 17345 ft 396 kts 89°
2026-05-05 16:27 48.43817 7.85561 17955 ft 398 kts 89°
2026-05-05 16:27 48.43936 7.89737 18475 ft 400 kts 90°